KKB36 KSSI-KATL

Flight info

Callsign KKB36
Flight time 1h 25m
Altitude 8000
Route DBN SINCA V179 HUSKY
Aircraft BE58/L-SDFGRY/C

Departure

Time 2026-05-07 20:22
Airport St Simons Island Airport (KSSI)

Arrival

Time 2026-05-07 21:48
Airport Hartsfield Jackson Atlanta International Airport (KATL)
Time Latitude Longitude Altitude Speed Heading
2026-05-07 20:13 31.15516 -81.38716 15 ft 0 kts 154°
2026-05-07 20:19 31.15515 -81.38715 15 ft 1 kts 155°
2026-05-07 20:20 31.15501 -81.38715 15 ft 2 kts 258°
2026-05-07 20:20 31.15513 -81.38732 15 ft 3 kts 313°
2026-05-07 20:20 31.15532 -81.38759 16 ft 4 kts 314°
2026-05-07 20:20 31.15568 -81.38783 17 ft 7 kts 337°
2026-05-07 20:21 31.15623 -81.38813 17 ft 6 kts 341°
2026-05-07 20:21 31.15654 -81.38829 17 ft 6 kts 329°
2026-05-07 20:21 31.15702 -81.38859 17 ft 8 kts 336°
2026-05-07 20:21 31.15742 -81.38902 17 ft 6 kts 236°
2026-05-07 20:22 31.15710 -81.38932 17 ft 31 kts 218°
2026-05-07 20:22 31.15346 -81.39236 75 ft 81 kts 215°
2026-05-07 20:22 31.14833 -81.39626 327 ft 96 kts 213°
2026-05-07 20:22 31.14183 -81.39938 656 ft 105 kts 205°
2026-05-07 20:23 31.13688 -81.40518 966 ft 106 kts 250°
2026-05-07 20:23 31.13756 -81.41383 1261 ft 112 kts 284°
2026-05-07 20:23 31.14076 -81.42231 1525 ft 118 kts 295°
2026-05-07 20:23 31.14647 -81.42942 1803 ft 123 kts 310°
2026-05-07 20:24 31.15288 -81.43597 2089 ft 123 kts 311°
2026-05-07 20:24 31.15939 -81.44245 2371 ft 122 kts 311°
2026-05-07 20:24 31.16583 -81.44878 2647 ft 122 kts 311°
2026-05-07 20:24 31.17234 -81.45512 2923 ft 121 kts 310°
2026-05-07 20:25 31.17878 -81.46137 3197 ft 119 kts 309°
2026-05-07 20:25 31.18504 -81.46745 3465 ft 118 kts 309°
2026-05-07 20:25 31.19136 -81.47358 3722 ft 117 kts 309°
2026-05-07 20:25 31.19766 -81.47970 3976 ft 117 kts 309°
2026-05-07 20:26 31.20389 -81.48574 4221 ft 116 kts 309°
2026-05-07 20:26 31.21011 -81.49177 4464 ft 116 kts 308°
2026-05-07 20:26 31.21624 -81.49770 4702 ft 115 kts 308°
2026-05-07 20:26 31.22237 -81.50366 4943 ft 113 kts 308°
2026-05-07 20:27 31.22838 -81.50948 5172 ft 112 kts 308°
2026-05-07 20:27 31.23451 -81.51547 5421 ft 117 kts 308°
2026-05-07 20:27 31.24076 -81.52155 5695 ft 119 kts 308°
2026-05-07 20:27 31.24717 -81.52776 5978 ft 119 kts 308°
2026-05-07 20:28 31.25352 -81.53390 6267 ft 119 kts 308°
2026-05-07 20:28 31.25980 -81.53999 6553 ft 118 kts 308°
2026-05-07 20:28 31.26609 -81.54609 6831 ft 117 kts 307°
2026-05-07 20:28 31.27235 -81.55216 7113 ft 116 kts 307°
2026-05-07 20:29 31.27850 -81.55814 7379 ft 115 kts 307°
2026-05-07 20:29 31.28460 -81.56407 7622 ft 116 kts 307°
2026-05-07 20:29 31.29087 -81.57019 7812 ft 120 kts 307°
2026-05-07 20:29 31.29757 -81.57677 7919 ft 130 kts 308°
2026-05-07 20:30 31.30484 -81.58385 7982 ft 141 kts 309°
2026-05-07 20:30 31.31265 -81.59145 7989 ft 151 kts 310°
2026-05-07 20:30 31.32088 -81.59940 7984 ft 157 kts 310°
2026-05-07 20:30 31.32934 -81.60760 7987 ft 160 kts 310°
2026-05-07 20:31 31.33808 -81.61607 7988 ft 163 kts 310°
2026-05-07 20:31 31.34686 -81.62460 7990 ft 164 kts 310°
2026-05-07 20:31 31.35564 -81.63313 7982 ft 165 kts 310°
2026-05-07 20:31 31.36451 -81.64177 7981 ft 165 kts 310°
2026-05-07 20:32 31.37334 -81.65036 7985 ft 165 kts 310°
2026-05-07 20:32 31.38221 -81.65901 7988 ft 166 kts 310°
2026-05-07 20:32 31.39104 -81.66761 7984 ft 167 kts 310°
2026-05-07 20:32 31.39998 -81.67632 7979 ft 167 kts 310°
2026-05-07 20:33 31.40893 -81.68505 7977 ft 167 kts 310°
2026-05-07 20:33 31.41789 -81.69379 7979 ft 166 kts 310°
2026-05-07 20:33 31.42670 -81.70238 7998 ft 167 kts 309°
2026-05-07 20:33 31.43573 -81.71120 7995 ft 167 kts 310°
2026-05-07 20:34 31.44470 -81.71994 7987 ft 167 kts 310°
2026-05-07 20:34 31.45360 -81.72863 7990 ft 167 kts 310°
2026-05-07 20:34 31.46245 -81.73727 7997 ft 166 kts 310°
2026-05-07 20:34 31.47142 -81.74603 8000 ft 166 kts 310°
2026-05-07 20:35 31.48027 -81.75468 8000 ft 166 kts 310°
2026-05-07 20:35 31.48912 -81.76332 7997 ft 166 kts 309°
2026-05-07 20:35 31.49808 -81.77209 7997 ft 166 kts 310°
2026-05-07 20:35 31.50686 -81.78065 7998 ft 166 kts 309°
2026-05-07 20:36 31.51582 -81.78941 7994 ft 165 kts 310°
2026-05-07 20:36 31.52456 -81.79794 7996 ft 165 kts 309°
2026-05-07 20:36 31.53341 -81.80660 7992 ft 164 kts 309°
2026-05-07 20:36 31.54211 -81.81511 8001 ft 164 kts 310°
2026-05-07 20:37 31.55088 -81.82370 8004 ft 164 kts 309°
2026-05-07 20:37 31.55968 -81.83231 8003 ft 164 kts 309°
2026-05-07 20:37 31.56846 -81.84091 8009 ft 164 kts 309°
2026-05-07 20:37 31.57722 -81.84950 8003 ft 164 kts 309°
2026-05-07 20:38 31.58604 -81.85815 8008 ft 164 kts 309°
2026-05-07 20:38 31.59476 -81.86669 8005 ft 164 kts 309°
2026-05-07 20:38 31.60356 -81.87531 8006 ft 164 kts 309°
2026-05-07 20:38 31.61233 -81.88390 8002 ft 163 kts 309°
2026-05-07 20:39 31.62103 -81.89243 7999 ft 163 kts 309°
2026-05-07 20:39 31.62975 -81.90100 7998 ft 163 kts 309°
2026-05-07 20:39 31.63836 -81.90945 7991 ft 163 kts 309°
2026-05-07 20:39 31.64716 -81.91809 7989 ft 163 kts 309°
2026-05-07 20:40 31.65585 -81.92663 7989 ft 163 kts 309°
2026-05-07 20:40 31.66453 -81.93515 7993 ft 164 kts 309°
2026-05-07 20:40 31.67332 -81.94378 7993 ft 164 kts 309°
2026-05-07 20:40 31.68201 -81.95233 7980 ft 163 kts 309°
2026-05-07 20:41 31.69068 -81.96085 7991 ft 163 kts 310°
2026-05-07 20:41 31.69943 -81.96944 7986 ft 163 kts 309°
2026-05-07 20:41 31.70809 -81.97796 7984 ft 163 kts 309°
2026-05-07 20:41 31.71676 -81.98650 7984 ft 163 kts 309°
2026-05-07 20:42 31.72551 -81.99510 7983 ft 162 kts 310°
2026-05-07 20:42 31.73413 -82.00357 7989 ft 162 kts 309°
2026-05-07 20:42 31.74281 -82.01212 7985 ft 161 kts 309°
2026-05-07 20:42 31.75138 -82.02057 7983 ft 162 kts 309°
2026-05-07 20:43 31.76004 -82.02910 7978 ft 161 kts 309°
2026-05-07 20:43 31.76864 -82.03758 7979 ft 161 kts 309°
2026-05-07 20:43 31.77725 -82.04605 7978 ft 161 kts 309°
2026-05-07 20:43 31.78576 -82.05444 7977 ft 161 kts 309°
2026-05-07 20:44 31.79433 -82.06289 7972 ft 160 kts 309°
2026-05-07 20:44 31.80292 -82.07135 7979 ft 160 kts 309°
2026-05-07 20:44 31.81140 -82.07973 7980 ft 161 kts 309°
2026-05-07 20:44 31.82001 -82.08823 7982 ft 161 kts 309°
2026-05-07 20:45 31.82864 -82.09674 7979 ft 160 kts 309°
2026-05-07 20:45 31.83712 -82.10510 7982 ft 160 kts 309°
2026-05-07 20:45 31.84575 -82.11363 7984 ft 160 kts 309°
2026-05-07 20:45 31.85427 -82.12204 7986 ft 160 kts 309°
2026-05-07 20:46 31.86275 -82.13042 7983 ft 160 kts 309°
2026-05-07 20:46 31.87134 -82.13890 7981 ft 159 kts 309°
2026-05-07 20:46 31.87977 -82.14723 7972 ft 158 kts 309°
2026-05-07 20:46 31.88814 -82.15550 7975 ft 158 kts 308°
2026-05-07 20:47 31.89651 -82.16379 7981 ft 157 kts 308°
2026-05-07 20:47 31.90492 -82.17211 7976 ft 157 kts 309°
2026-05-07 20:47 31.91339 -82.18049 7985 ft 157 kts 308°
2026-05-07 20:47 31.92171 -82.18872 7987 ft 157 kts 309°
2026-05-07 20:48 31.93012 -82.19704 7984 ft 157 kts 309°
2026-05-07 20:48 31.93845 -82.20529 7987 ft 157 kts 309°
2026-05-07 20:48 31.94691 -82.21368 7985 ft 157 kts 309°
2026-05-07 20:48 31.95523 -82.22192 7991 ft 158 kts 309°
2026-05-07 20:49 31.96370 -82.23032 7985 ft 158 kts 309°
2026-05-07 20:49 31.97214 -82.23867 7982 ft 157 kts 309°
2026-05-07 20:49 31.98047 -82.24693 7991 ft 157 kts 308°
2026-05-07 20:49 31.98885 -82.25523 7988 ft 157 kts 308°
2026-05-07 20:50 31.99728 -82.26360 7992 ft 157 kts 309°
2026-05-07 20:50 32.00556 -82.27181 7990 ft 157 kts 309°
2026-05-07 20:50 32.01398 -82.28016 7990 ft 157 kts 308°
2026-05-07 20:50 32.02235 -82.28848 7989 ft 157 kts 308°
2026-05-07 20:51 32.03065 -82.29672 7991 ft 157 kts 309°
2026-05-07 20:51 32.03903 -82.30503 7992 ft 157 kts 308°
2026-05-07 20:51 32.04742 -82.31336 7992 ft 157 kts 308°
2026-05-07 20:51 32.05566 -82.32156 7992 ft 157 kts 308°
2026-05-07 20:52 32.06399 -82.32984 7986 ft 157 kts 309°
2026-05-07 20:52 32.07235 -82.33814 7991 ft 157 kts 308°
2026-05-07 20:52 32.08069 -82.34644 7990 ft 156 kts 309°
2026-05-07 20:52 32.08904 -82.35474 7993 ft 157 kts 308°
2026-05-07 20:53 32.09747 -82.36313 7991 ft 157 kts 308°
2026-05-07 20:53 32.10577 -82.37138 7991 ft 157 kts 308°
2026-05-07 20:53 32.11412 -82.37969 7987 ft 157 kts 308°
2026-05-07 20:53 32.12243 -82.38797 7990 ft 157 kts 308°
2026-05-07 20:54 32.13076 -82.39626 7988 ft 157 kts 308°
2026-05-07 20:54 32.13919 -82.40466 7990 ft 157 kts 309°
2026-05-07 20:54 32.14747 -82.41291 7988 ft 156 kts 309°
2026-05-07 20:54 32.15584 -82.42124 7985 ft 156 kts 308°
2026-05-07 20:55 32.16416 -82.42954 7984 ft 156 kts 308°
2026-05-07 20:55 32.17249 -82.43784 7985 ft 156 kts 309°
2026-05-07 20:55 32.18079 -82.44613 7983 ft 156 kts 308°
2026-05-07 20:55 32.18912 -82.45443 7989 ft 156 kts 308°
2026-05-07 20:56 32.19733 -82.46263 7990 ft 156 kts 308°
2026-05-07 20:56 32.20567 -82.47095 7984 ft 157 kts 309°
2026-05-07 20:56 32.21411 -82.47938 7979 ft 156 kts 309°
2026-05-07 20:56 32.22232 -82.48757 7978 ft 156 kts 309°
2026-05-07 20:57 32.23070 -82.49593 7983 ft 156 kts 308°
2026-05-07 20:57 32.23895 -82.50419 7981 ft 157 kts 309°
2026-05-07 20:57 32.24731 -82.51253 7980 ft 157 kts 308°
2026-05-07 20:57 32.25572 -82.52094 7974 ft 157 kts 309°
2026-05-07 20:58 32.26399 -82.52920 7978 ft 157 kts 309°
2026-05-07 20:58 32.27237 -82.53758 7980 ft 157 kts 308°
2026-05-07 20:58 32.28072 -82.54594 7982 ft 157 kts 308°
2026-05-07 20:58 32.28907 -82.55429 7980 ft 157 kts 309°
2026-05-07 20:59 32.29750 -82.56272 7975 ft 158 kts 309°
2026-05-07 20:59 32.30587 -82.57110 7976 ft 158 kts 308°
2026-05-07 20:59 32.31430 -82.57954 7973 ft 158 kts 309°
2026-05-07 20:59 32.32268 -82.58793 7978 ft 158 kts 309°
2026-05-07 21:00 32.33107 -82.59633 7974 ft 158 kts 309°
2026-05-07 21:00 32.33947 -82.60474 7974 ft 158 kts 309°
2026-05-07 21:00 32.34779 -82.61308 7971 ft 158 kts 308°
2026-05-07 21:00 32.35625 -82.62157 7970 ft 158 kts 309°
2026-05-07 21:01 32.36459 -82.62993 7972 ft 158 kts 308°
2026-05-07 21:01 32.37299 -82.63835 7968 ft 158 kts 308°
2026-05-07 21:01 32.38133 -82.64672 7970 ft 158 kts 309°
2026-05-07 21:01 32.38974 -82.65517 7981 ft 157 kts 309°
2026-05-07 21:02 32.39811 -82.66356 7981 ft 158 kts 308°
2026-05-07 21:02 32.40654 -82.67204 7984 ft 159 kts 309°
2026-05-07 21:02 32.41498 -82.68050 7980 ft 159 kts 308°
2026-05-07 21:02 32.42353 -82.68909 7980 ft 159 kts 308°
2026-05-07 21:03 32.43194 -82.69754 7982 ft 159 kts 308°
2026-05-07 21:03 32.44042 -82.70606 7982 ft 160 kts 309°
2026-05-07 21:03 32.44883 -82.71453 7982 ft 160 kts 308°
2026-05-07 21:03 32.45736 -82.72310 7981 ft 160 kts 308°
2026-05-07 21:04 32.46587 -82.73166 7982 ft 160 kts 309°
2026-05-07 21:04 32.47432 -82.74015 7984 ft 160 kts 308°
2026-05-07 21:04 32.48280 -82.74868 7985 ft 160 kts 308°
2026-05-07 21:04 32.49127 -82.75721 7985 ft 160 kts 308°
2026-05-07 21:05 32.49976 -82.76576 7985 ft 160 kts 308°
2026-05-07 21:05 32.50831 -82.77437 7985 ft 160 kts 309°
2026-05-07 21:05 32.51681 -82.78294 7987 ft 160 kts 308°
2026-05-07 21:05 32.52527 -82.79146 7987 ft 160 kts 309°
2026-05-07 21:06 32.53381 -82.80006 7987 ft 160 kts 308°
2026-05-07 21:06 32.54225 -82.80858 7988 ft 160 kts 308°
2026-05-07 21:06 32.55069 -82.81709 7989 ft 160 kts 308°
2026-05-07 21:06 32.55921 -82.82568 7990 ft 160 kts 309°
2026-05-07 21:07 32.56680 -82.83495 7992 ft 155 kts 300°
2026-05-07 21:07 32.57354 -82.84487 7990 ft 154 kts 300°
2026-05-07 21:07 32.58025 -82.85481 7993 ft 154 kts 299°
2026-05-07 21:07 32.58704 -82.86488 7991 ft 154 kts 300°
2026-05-07 21:08 32.59374 -82.87482 7991 ft 154 kts 299°
2026-05-07 21:08 32.60043 -82.88474 7991 ft 154 kts 299°
2026-05-07 21:08 32.60715 -82.89472 7990 ft 155 kts 300°
2026-05-07 21:08 32.61384 -82.90462 7991 ft 155 kts 299°
2026-05-07 21:09 32.62060 -82.91466 7992 ft 155 kts 300°
2026-05-07 21:09 32.62735 -82.92469 7989 ft 155 kts 299°
2026-05-07 21:09 32.63402 -82.93459 7992 ft 155 kts 300°
2026-05-07 21:09 32.64078 -82.94463 7992 ft 155 kts 300°
2026-05-07 21:10 32.64751 -82.95464 7995 ft 155 kts 299°
2026-05-07 21:10 32.65425 -82.96465 7995 ft 155 kts 300°
2026-05-07 21:10 32.66093 -82.97459 7993 ft 155 kts 299°
2026-05-07 21:10 32.66772 -82.98468 7991 ft 155 kts 299°
2026-05-07 21:11 32.67444 -82.99468 7991 ft 155 kts 299°
2026-05-07 21:11 32.68112 -83.00462 7990 ft 155 kts 299°
2026-05-07 21:11 32.69458 -83.02465 7989 ft 155 kts 299°
2026-05-07 21:12 32.70130 -83.03466 7989 ft 155 kts 299°
2026-05-07 21:12 32.70800 -83.04463 7988 ft 155 kts 300°
2026-05-07 21:12 32.71471 -83.05464 7986 ft 155 kts 299°
2026-05-07 21:12 32.72148 -83.06472 7988 ft 155 kts 300°
2026-05-07 21:13 32.72820 -83.07474 7987 ft 155 kts 300°
2026-05-07 21:13 32.73487 -83.08468 7988 ft 155 kts 300°
2026-05-07 21:13 32.74163 -83.09478 7988 ft 155 kts 300°
2026-05-07 21:13 32.74830 -83.10471 7987 ft 155 kts 300°
2026-05-07 21:14 32.75506 -83.11481 7985 ft 155 kts 299°
2026-05-07 21:14 32.76175 -83.12479 7986 ft 155 kts 300°
2026-05-07 21:14 32.76850 -83.13487 7987 ft 155 kts 300°
2026-05-07 21:14 32.77520 -83.14487 7982 ft 155 kts 299°
2026-05-07 21:15 32.78185 -83.15481 7981 ft 155 kts 300°
2026-05-07 21:15 32.78856 -83.16482 7976 ft 154 kts 300°
2026-05-07 21:15 32.79532 -83.17493 7977 ft 154 kts 299°
2026-05-07 21:15 32.80196 -83.18486 7982 ft 154 kts 300°
2026-05-07 21:16 32.80862 -83.19482 7984 ft 154 kts 300°
2026-05-07 21:16 32.81522 -83.20471 7983 ft 154 kts 299°
2026-05-07 21:16 32.82193 -83.21474 7983 ft 154 kts 300°
2026-05-07 21:16 32.82859 -83.22472 7985 ft 154 kts 300°
2026-05-07 21:17 32.83529 -83.23474 7986 ft 154 kts 300°
2026-05-07 21:17 32.84200 -83.24479 7988 ft 155 kts 300°
2026-05-07 21:17 32.84864 -83.25474 7986 ft 155 kts 300°
2026-05-07 21:17 32.85532 -83.26475 7985 ft 155 kts 300°
2026-05-07 21:18 32.86201 -83.27477 7987 ft 154 kts 300°
2026-05-07 21:18 32.86876 -83.28489 7988 ft 155 kts 300°
2026-05-07 21:18 32.87542 -83.29488 7993 ft 155 kts 300°
2026-05-07 21:18 32.88213 -83.30496 7987 ft 155 kts 298°
2026-05-07 21:19 32.88882 -83.31498 7989 ft 154 kts 299°
2026-05-07 21:19 32.89550 -83.32501 7994 ft 154 kts 300°
2026-05-07 21:19 32.90214 -83.33498 7990 ft 155 kts 300°
2026-05-07 21:19 32.90887 -83.34508 7986 ft 155 kts 300°
2026-05-07 21:20 32.91556 -83.35512 7991 ft 154 kts 300°
2026-05-07 21:20 32.92224 -83.36516 7993 ft 155 kts 300°
2026-05-07 21:20 32.92894 -83.37524 7995 ft 155 kts 300°
2026-05-07 21:20 32.93559 -83.38522 7994 ft 155 kts 300°
2026-05-07 21:21 32.94231 -83.39534 7993 ft 155 kts 300°
2026-05-07 21:21 32.94915 -83.40565 7843 ft 162 kts 300°
2026-05-07 21:21 32.95629 -83.41641 7696 ft 167 kts 301°
2026-05-07 21:21 32.96355 -83.42732 7558 ft 170 kts 301°
2026-05-07 21:22 32.97096 -83.43848 7425 ft 172 kts 301°
2026-05-07 21:22 32.97834 -83.44957 7298 ft 173 kts 301°
2026-05-07 21:22 32.98586 -83.46088 7172 ft 172 kts 301°
2026-05-07 21:22 32.99331 -83.47208 7041 ft 171 kts 301°
2026-05-07 21:23 33.00065 -83.48313 6904 ft 170 kts 301°
2026-05-07 21:23 33.00799 -83.49422 6765 ft 170 kts 302°
2026-05-07 21:23 33.01526 -83.50517 6639 ft 170 kts 301°
2026-05-07 21:23 33.02262 -83.51627 6504 ft 171 kts 302°
2026-05-07 21:24 33.02999 -83.52739 6369 ft 171 kts 302°
2026-05-07 21:24 33.03737 -83.53854 6236 ft 171 kts 302°
2026-05-07 21:24 33.04476 -83.54971 6101 ft 172 kts 302°
2026-05-07 21:24 33.05218 -83.56091 5987 ft 171 kts 302°
2026-05-07 21:25 33.05946 -83.57189 5940 ft 168 kts 302°
2026-05-07 21:25 33.06663 -83.58271 5940 ft 164 kts 302°
2026-05-07 21:25 33.07366 -83.59334 5943 ft 162 kts 302°
2026-05-07 21:25 33.08065 -83.60385 5946 ft 161 kts 303°
2026-05-07 21:26 33.08939 -83.61270 5941 ft 160 kts 303°
2026-05-07 21:26 33.09574 -83.62321 5946 ft 157 kts 299°
2026-05-07 21:26 33.10212 -83.63393 5946 ft 157 kts 300°
2026-05-07 21:26 33.10860 -83.64442 5945 ft 157 kts 301°
2026-05-07 21:27 33.11521 -83.65484 5948 ft 157 kts 300°
2026-05-07 21:27 33.12185 -83.66513 5952 ft 158 kts 301°
2026-05-07 21:27 33.12860 -83.67548 5955 ft 158 kts 301°
2026-05-07 21:27 33.13545 -83.68589 5953 ft 159 kts 301°
2026-05-07 21:28 33.14230 -83.69627 5953 ft 159 kts 302°
2026-05-07 21:28 33.14910 -83.70654 5953 ft 159 kts 302°
2026-05-07 21:28 33.15601 -83.71696 5953 ft 158 kts 302°
2026-05-07 21:28 33.16282 -83.72721 5952 ft 159 kts 302°
2026-05-07 21:29 33.16975 -83.73765 5953 ft 159 kts 302°
2026-05-07 21:29 33.17657 -83.74792 5953 ft 159 kts 302°
2026-05-07 21:29 33.18345 -83.75827 5953 ft 159 kts 302°
2026-05-07 21:29 33.19032 -83.76862 5952 ft 159 kts 302°
2026-05-07 21:30 33.19719 -83.77895 5953 ft 159 kts 302°
2026-05-07 21:30 33.20407 -83.78931 5954 ft 159 kts 302°
2026-05-07 21:30 33.21096 -83.79970 5951 ft 159 kts 302°
2026-05-07 21:30 33.21785 -83.81006 5953 ft 159 kts 302°
2026-05-07 21:31 33.22463 -83.82028 5953 ft 158 kts 302°
2026-05-07 21:31 33.23150 -83.83063 5953 ft 158 kts 302°
2026-05-07 21:31 33.23829 -83.84087 5954 ft 158 kts 302°
2026-05-07 21:31 33.24522 -83.85131 5953 ft 158 kts 301°
2026-05-07 21:32 33.25201 -83.86156 5951 ft 158 kts 302°
2026-05-07 21:32 33.25884 -83.87186 5954 ft 158 kts 302°
2026-05-07 21:32 33.26568 -83.88218 5953 ft 158 kts 302°
2026-05-07 21:32 33.27245 -83.89239 5960 ft 157 kts 302°
2026-05-07 21:33 33.27931 -83.90278 5945 ft 159 kts 302°
2026-05-07 21:33 33.28619 -83.91318 5847 ft 163 kts 302°
2026-05-07 21:33 33.29337 -83.92405 5743 ft 166 kts 303°
2026-05-07 21:33 33.30061 -83.93498 5612 ft 168 kts 303°
2026-05-07 21:34 33.30789 -83.94598 5475 ft 170 kts 303°
2026-05-07 21:34 33.31519 -83.95702 5343 ft 170 kts 303°
2026-05-07 21:34 33.32257 -83.96816 5211 ft 171 kts 303°
2026-05-07 21:34 33.32995 -83.97940 5080 ft 171 kts 301°
2026-05-07 21:35 33.33541 -83.99179 4921 ft 173 kts 304°
2026-05-07 21:35 33.34403 -84.00210 4793 ft 174 kts 310°
2026-05-07 21:35 33.35215 -84.01253 4661 ft 172 kts 307°
2026-05-07 21:35 33.36106 -84.02220 4510 ft 177 kts 324°
2026-05-07 21:36 33.37234 -84.02831 4375 ft 179 kts 332°
2026-05-07 21:36 33.38414 -84.03328 4240 ft 180 kts 335°
2026-05-07 21:36 33.39625 -84.03793 4104 ft 181 kts 336°
2026-05-07 21:36 33.40818 -84.04236 3974 ft 181 kts 336°
2026-05-07 21:37 33.42036 -84.04682 3838 ft 181 kts 337°
2026-05-07 21:37 33.43208 -84.05106 4055 ft 161 kts 336°
2026-05-07 21:37 33.44244 -84.05482 4030 ft 168 kts 335°
2026-05-07 21:37 33.45363 -84.05894 4006 ft 169 kts 336°
2026-05-07 21:38 33.46505 -84.06310 3948 ft 172 kts 336°
2026-05-07 21:38 33.47652 -84.06728 3958 ft 171 kts 336°
2026-05-07 21:38 33.48786 -84.07140 3961 ft 170 kts 336°
2026-05-07 21:38 33.49932 -84.07558 3960 ft 170 kts 336°
2026-05-07 21:39 33.51059 -84.07968 3959 ft 169 kts 336°
2026-05-07 21:39 33.52185 -84.08379 3963 ft 169 kts 336°
2026-05-07 21:39 33.53315 -84.08791 3964 ft 169 kts 336°
2026-05-07 21:39 33.54447 -84.09204 3967 ft 169 kts 336°
2026-05-07 21:40 33.55563 -84.09611 3969 ft 169 kts 336°
2026-05-07 21:40 33.56687 -84.10022 3972 ft 169 kts 336°
2026-05-07 21:40 33.57825 -84.10437 3972 ft 169 kts 336°
2026-05-07 21:40 33.58958 -84.10850 3974 ft 169 kts 336°
2026-05-07 21:41 33.60075 -84.11259 3975 ft 169 kts 337°
2026-05-07 21:41 33.61206 -84.11672 3975 ft 169 kts 336°
2026-05-07 21:41 33.62266 -84.12235 3968 ft 162 kts 312°
2026-05-07 21:41 33.62891 -84.13325 3975 ft 158 kts 296°
2026-05-07 21:42 33.63407 -84.14485 3979 ft 158 kts 295°
2026-05-07 21:42 33.63914 -84.15655 3980 ft 158 kts 295°
2026-05-07 21:42 33.64428 -84.16832 3978 ft 158 kts 295°
2026-05-07 21:42 33.64849 -84.18044 3974 ft 157 kts 278°
2026-05-07 21:43 33.64909 -84.19345 3980 ft 157 kts 272°
2026-05-07 21:43 33.64925 -84.20667 3978 ft 158 kts 272°
2026-05-07 21:43 33.64933 -84.21976 3980 ft 158 kts 272°
2026-05-07 21:43 33.64938 -84.23309 3808 ft 157 kts 272°
2026-05-07 21:44 33.64941 -84.24596 3624 ft 155 kts 272°
2026-05-07 21:44 33.64943 -84.25883 3432 ft 155 kts 271°
2026-05-07 21:44 33.64944 -84.27184 3236 ft 155 kts 271°
2026-05-07 21:44 33.64946 -84.28481 3038 ft 156 kts 272°
2026-05-07 21:45 33.64948 -84.29771 2836 ft 157 kts 272°
2026-05-07 21:45 33.64948 -84.31070 2628 ft 153 kts 272°
2026-05-07 21:45 33.64949 -84.32323 2425 ft 147 kts 272°
2026-05-07 21:45 33.64951 -84.33522 2230 ft 143 kts 272°
2026-05-07 21:46 33.64950 -84.34670 2047 ft 131 kts 273°
2026-05-07 21:46 33.64951 -84.35734 1888 ft 124 kts 273°
2026-05-07 21:46 33.64952 -84.36746 1727 ft 120 kts 273°
2026-05-07 21:46 33.64952 -84.37738 1572 ft 117 kts 274°
2026-05-07 21:47 33.64952 -84.38696 1420 ft 114 kts 275°
2026-05-07 21:47 33.64954 -84.39629 1276 ft 108 kts 274°
2026-05-07 21:47 33.64952 -84.40482 1125 ft 96 kts 275°
2026-05-07 21:47 33.64951 -84.41232 1013 ft 81 kts 274°
2026-05-07 21:48 33.64952 -84.41803 1006 ft 57 kts 271°
2026-05-07 21:48 33.64954 -84.42172 1009 ft 18 kts 272°
2026-05-07 21:48 33.65022 -84.42239 1015 ft 6 kts
2026-05-07 21:48 33.65060 -84.42236 1019 ft 9 kts
2026-05-07 21:49 33.65140 -84.42223 1019 ft 11 kts 322°
2026-05-07 21:49 33.65160 -84.42313 1019 ft 10 kts 274°
2026-05-07 21:49 33.65187 -84.42385 1019 ft 10 kts 338°
2026-05-07 21:49 33.65229 -84.42434 1019 ft 8 kts 271°
2026-05-07 21:50 33.65229 -84.42474 1019 ft 0 kts 268°